Weather History for Guthrie, OK

Change the Weather History Date:

Sunday, January 12, 2014

  Actual Average Record
Temperature  
Mean Temperature 60 °F -  
Max Temperature 73 °F 45 °F 73 °F (2014)
Min Temperature 46 °F 24 °F -4 °F (1963)
Degree Days  
Heating Degree Days 6    
Growing Degree Days 10 (Base 50)    
Moisture  
Dew Point 28 °F    
Average Humidity 30    
Maximum Humidity 50    
Minimum Humidity 20    
Precipitation  
Precipitation 0.00 in - - ()
Sea Level Pressure  
Sea Level Pressure 29.70 in    
Wind  
Wind Speed 16 mph (SSW)    
Max Wind Speed 30 mph    
Max Gust Speed 44 mph    
Visibility 10 miles    
Events      
Averages and records for this station are not official NWS values.
T = Trace of Precipitation, MM = Missing Value Source: NWS Daily Summary

Daily Weather History Graph

Daily Weather History Graph

Search for Another Location

Airport:

Trip Planner

Search our weather history database for the weather conditions in past years. The results will help you decide how hot, cold, wet, or windy it might be!

Date:

Astronomy

Jan. 12, 2014 Rise Set
Actual Time 7:39 AM CST 5:36 PM CST
Civil Twilight 7:11 AM CST 6:04 PM CST
Nautical Twilight 6:40 AM CST 6:36 PM CST
Astronomical Twilight 6:09 AM CST 7:06 PM CST
Moon 3:04 PM CST (1/12) 4:40 AM CST (1/12)
Length of Visible Light 10h 52m
Length of Day
9h 56m
Waxing Gibbous, 90% of the Moon is Illuminated
Jan 12
Waxing Gibbous
Jan 15
Full
Jan 23
Last Quarter
Jan 30
New
Feb 6
First Quarter

Hourly Weather History & Observations

Time (CST) Temp. Windchill Dew Point Humidity Pressure Visibility Wind Dir Wind Speed Gust Speed Precip Events Conditions
12:53 AM 48.0 °F - 23.0 °F 37% 29.90 in 10.0 mi South 9.2 mph - N/A   Clear
1:53 AM 46.0 °F 40.6 °F 21.9 °F 39% 29.87 in 10.0 mi South 11.5 mph - N/A   Clear
2:53 AM 48.9 °F - 21.9 °F 35% 29.86 in 10.0 mi South 10.4 mph - N/A   Clear
3:53 AM 52.0 °F - 21.0 °F 30% 29.83 in 10.0 mi South 16.1 mph 21.9 mph N/A   Clear
4:53 AM 53.1 °F - 21.0 °F 29% 29.80 in 10.0 mi South 15.0 mph 27.6 mph N/A   Clear
5:53 AM 52.0 °F - 21.9 °F 31% 29.78 in 10.0 mi South 21.9 mph 28.8 mph N/A   Clear
6:53 AM 53.1 °F - 24.1 °F 32% 29.78 in 10.0 mi SSW 21.9 mph 28.8 mph N/A   Clear
7:53 AM 51.1 °F - 25.0 °F 36% 29.77 in 10.0 mi South 16.1 mph 24.2 mph N/A   Clear
8:53 AM 55.0 °F - 26.1 °F 33% 29.75 in 10.0 mi South 26.5 mph 34.5 mph N/A   Clear
9:53 AM 60.1 °F - 27.0 °F 28% 29.73 in 10.0 mi SSW 19.6 mph 34.5 mph N/A   Clear
10:53 AM 63.0 °F - 27.0 °F 26% 29.73 in 10.0 mi SSW 19.6 mph 32.2 mph N/A   Clear
11:53 AM 66.0 °F - 28.0 °F 24% 29.68 in 10.0 mi SSW 23.0 mph 39.1 mph N/A   Clear
12:53 PM 68.0 °F - 28.9 °F 23% 29.61 in 10.0 mi SSW 29.9 mph 43.7 mph N/A   Clear
1:53 PM 72.0 °F - 30.0 °F 21% 29.58 in 10.0 mi SSW 20.7 mph 35.7 mph N/A   Clear
2:53 PM 73.0 °F - 30.0 °F 20% 29.56 in 10.0 mi SW 25.3 mph 36.8 mph N/A   Clear
3:53 PM 73.9 °F - 30.9 °F 21% 29.56 in 10.0 mi SSW 24.2 mph 33.4 mph N/A   Clear
4:53 PM 73.0 °F - 30.9 °F 21% 29.56 in 10.0 mi SSW 18.4 mph 28.8 mph N/A   Clear
5:53 PM 70.0 °F - 30.9 °F 24% 29.56 in 10.0 mi South 16.1 mph - N/A   Clear
6:53 PM 68.0 °F - 30.9 °F 25% 29.55 in 10.0 mi South 17.3 mph 25.3 mph N/A   Clear
7:53 PM 66.9 °F - 32.0 °F 27% 29.55 in 10.0 mi South 18.4 mph 25.3 mph N/A   Clear
8:53 PM 64.9 °F - 33.1 °F 31% 29.60 in 10.0 mi SW 12.7 mph 28.8 mph N/A   Clear
9:00 PM 64.4 °F - 33.8 °F 32% 29.62 in 10.0 mi WSW 15.0 mph 23.0 mph N/A   Clear
9:21 PM 60.8 °F - 30.2 °F 31% 29.66 in 10.0 mi NNW 11.5 mph 26.5 mph N/A   Clear
9:53 PM 55.0 °F - 30.0 °F 38% 29.70 in 10.0 mi NW 12.7 mph 21.9 mph N/A   Clear
10:53 PM 52.0 °F - 30.9 °F 45% 29.76 in 10.0 mi NNW 9.2 mph 16.1 mph N/A   Clear
11:53 PM 50.0 °F - 32.0 °F 50% 29.79 in 10.0 mi NNW 5.8 mph - N/A   Clear